Location: Innerarity Island Observatory
(30.3139°N, 87.4867°W)
Time: 06:22:47
(UTC-05:00)

JAS-2 - Visible Passes

Search period start: 31 March 2015 00:00
Search period end: 10 April 2015 00:00
Orbit: 801 x 1321 km, 98.5° (Epoch: 30 March)

Date Brightness Start Highest point End Pass type
(mag) Time Alt. Az. Time Alt. Az. Time Alt. Az.
31 Mar 11.7 03:59:53 10° NE 04:05:45 26° E 04:11:24 10° SSE visible
31 Mar 10.2 05:43:52 10° N 05:51:07 49° WNW 05:57:39 10° SW visible
01 Apr 10.2 04:48:50 10° NNE 04:56:20 66° E 05:03:02 10° S visible
02 Apr 11.8 03:55:19 10° NE 04:00:49 23° E 04:06:10 10° SE visible
02 Apr 10.1 05:39:02 10° N 05:46:18 52° WNW 05:52:46 10° SW visible
03 Apr 10.3 04:44:06 10° NNE 04:51:27 61° E 04:58:00 10° S visible
04 Apr 11.9 03:50:47 10° NE 03:55:53 21° E 04:00:54 10° SE visible
04 Apr 10.0 05:34:14 10° N 05:41:28 55° WNW 05:47:53 10° SSW visible
05 Apr 10.4 04:39:23 10° NNE 04:46:34 57° E 04:52:57 10° S visible
06 Apr 12.0 03:46:17 10° NE 03:50:55 19° E 03:55:35 10° SE visible
06 Apr 9.9 05:29:26 10° N 05:36:37 59° WNW 05:42:58 10° SSW visible
07 Apr 10.5 04:34:40 10° NNE 04:41:40 52° E 04:47:53 10° S visible
08 Apr 12.1 03:41:49 10° NE 03:45:57 17° E 03:50:12 10° SE visible
08 Apr 9.8 05:24:38 10° N 05:31:46 62° WNW 05:38:02 10° SSW visible
09 Apr 10.6 04:29:58 10° NNE 04:36:45 48° E 04:42:48 10° S visible
